TimeMDT,TemperatureF,Dew PointF,Humidity,Sea Level PressureIn,VisibilityMPH,Wind Direction,Wind SpeedMPH,Gust SpeedMPH,PrecipitationIn,Events,Conditions,WindDirDegrees,DateUTC
12:00 AM,33,33,97,29.92,,,38.0,,,,,,2013-07-14 06:00:00
12:00 AM,32.5,32.5,100,29.92,-9999.0,North,-9999.0,-,N/A,,Unknown,0,2013-07-14 06:00:00
1:00 AM,32.0,32.0,100,29.92,-9999.0,North,-9999.0,-,N/A,,Unknown,0,2013-07-14 07:00:00
2:00 AM,31.5,31.5,100,29.93,-9999.0,North,-9999.0,-,N/A,,Unknown,0,2013-07-14 08:00:00
3:00 AM,31.1,31.1,100,29.93,-9999.0,North,-9999.0,-,N/A,,Unknown,0,2013-07-14 09:00:00
4:00 AM,31.1,31.1,100,29.93,-9999.0,North,-9999.0,-,N/A,,Unknown,0,2013-07-14 10:00:00
5:00 AM,31.3,31.3,100,29.93,-9999.0,North,-9999.0,-,N/A,,Unknown,0,2013-07-14 11:00:00
6:00 AM,31,31,100,29.94,,,42.5,,,,,,2013-07-14 12:00:00
6:00 AM,31.3,31.3,100,29.94,-9999.0,North,-9999.0,-,N/A,,Unknown,0,2013-07-14 12:00:00
7:00 AM,31.5,31.5,100,29.94,-9999.0,North,-9999.0,-,N/A,,Unknown,0,2013-07-14 13:00:00
8:00 AM,31.6,31.6,100,29.94,-9999.0,North,-9999.0,-,N/A,,Unknown,0,2013-07-14 14:00:00
9:00 AM,32.4,32.4,100,29.94,-9999.0,North,-9999.0,-,N/A,,Unknown,0,2013-07-14 15:00:00
10:00 AM,32.9,32.9,100,29.94,-9999.0,North,-9999.0,-,N/A,,Unknown,0,2013-07-14 16:00:00
11:00 AM,32.5,32.5,100,29.94,-9999.0,North,-9999.0,-,N/A,,Unknown,0,2013-07-14 17:00:00
12:00 PM,33,33,97,29.95,,,42.5,,,,,,2013-07-14 18:00:00
12:00 PM,32.5,32.5,100,29.95,-9999.0,North,-9999.0,-,N/A,,Unknown,0,2013-07-14 18:00:00
1:00 PM,33.1,33.1,100,29.95,-9999.0,North,-9999.0,-,N/A,,Unknown,0,2013-07-14 19:00:00
2:00 PM,33.4,33.4,100,29.95,-9999.0,North,-9999.0,-,N/A,,Unknown,0,2013-07-14 20:00:00
3:00 PM,34.5,34.0,98,29.97,-9999.0,North,-9999.0,-,N/A,,Unknown,0,2013-07-14 21:00:00
4:00 PM,35.2,34.5,97,29.98,-9999.0,North,-9999.0,-,N/A,,Unknown,0,2013-07-14 22:00:00
5:00 PM,34.9,34.3,98,29.99,-9999.0,North,-9999.0,-,N/A,,Unknown,0,2013-07-14 23:00:00
6:00 PM,36,35,95,30.00,,,40.3,,,,,,2013-07-15 00:00:00
6:00 PM,35.8,35.2,98,30.00,-9999.0,North,-9999.0,-,N/A,,Unknown,0,2013-07-15 00:00:00
7:00 PM,36.0,36.0,100,30.02,-9999.0,North,-9999.0,-,N/A,,Unknown,0,2013-07-15 01:00:00
8:00 PM,35.2,35.2,100,30.03,-9999.0,North,-9999.0,-,N/A,,Unknown,0,2013-07-15 02:00:00
9:00 PM,35.1,35.1,100,30.04,-9999.0,North,-9999.0,-,N/A,,Unknown,0,2013-07-15 03:00:00
10:00 PM,34.3,34.3,100,30.06,-9999.0,North,-9999.0,-,N/A,,Unknown,0,2013-07-15 04:00:00
11:00 PM,-9999,-9999,N/A,30.08,-9999.0,North,-9999.0,-,N/A,,Unknown,0,2013-07-15 05:00:00